Regional Weather Roundup
Issued by NWS

Home | Current Version | Previous Version | Text Only | Print | Product List | Glossary Off
Versions: 1 2 3 4 5 6 7 8 9 10 11 12 13 14 15 16 17 18 19 20 21 22 23 24 25 26 27 28 29 30 31 32 33 34 35 36 37 38 39 40 41 42 43 44 45 46 47 48 49 50

000
ASUS43 KDTX 211201
RWRMI
MICHIGAN HOURLY REGIONAL WEATHER ROUNDUP
NATIONAL WEATHER SERVICE DETROIT/PONTIAC MI
800 AM EDT FRI JUL 21 2017

NOTE: "FAIR" INDICATES FEW OR NO CLOUDS BELOW 12,000 FEET WITH NO
SIGNIFICANT WEATHER AND/OR OBSTRUCTION TO VISIBILITY.

MIZ047>049-052>055-059>063-066>070-074>076-081>083-211300-
SOUTHEAST LOWER MICHIGAN

CITY           SKY/WX    TMP DP  RH WIND       PRES   REMARKS
ADRIAN         CLOUDY    71  68  90 N6        30.01R FOG
6HR MIN TEMP:  67; 6HR MAX TEMP:  71;

ALMA           CLOUDY    67  65  96 N6        30.03R
ANN ARBOR      MOSUNNY   73  70  90 N5        30.00R
BAD AXE        SUNNY     68  65  89 CALM      30.01R
6HR MIN TEMP:  62; 6HR MAX TEMP:  68;

CARO           CLOUDY    71  65  81 CALM      30.00R
DETROIT CITY   CLOUDY    76  68  76 NE5       29.99R
6HR MIN TEMP:  72; 6HR MAX TEMP:  78;

DETROIT        CLOUDY    75  70  84 N5        30.00R
6HR MIN TEMP:  72; 6HR MAX TEMP:  76;

FLINT          CLOUDY    70  66  87 N6        30.00S
6HR MIN TEMP:  67; 6HR MAX TEMP:  71;

GROSSE ILE     MOSUNNY   75  70  84 NW5       29.98R
6HR MIN TEMP:  72; 6HR MAX TEMP:  75;

HILLSDALE      FOG       68  66  94 CALM      30.02R VSB 1/2
HOWELL         CLOUDY    68  67  95 CALM      30.01R
6HR MIN TEMP:  65; 6HR MAX TEMP:  69;


CITY           SKY/WX    TMP DP  RH WIND       PRES   REMARKS
JACKSON        CLOUDY    67  66  97 NW3       30.01S
6HR MIN TEMP:  64; 6HR MAX TEMP:  70; 6HR PCP: TRACE;

LAMBERTVILLE   CLOUDY    71  70  97 N3        29.98S FOG
6HR MIN TEMP:  66; 6HR MAX TEMP:  73;

LANSING        CLOUDY    67  65  93 N6        30.02R
6HR MIN TEMP:  64; 6HR MAX TEMP:  72;

LAPEER         FAIR      69  67  96 CALM      30.01S
6HR MIN TEMP:  63; 6HR MAX TEMP:  69;

MASON          CLOUDY    68  68 100 NW5       30.01S FOG
MONROE         CLOUDY    72  71  96 CALM      29.99R
6HR MIN TEMP:  67; 6HR MAX TEMP:  72;

MT. CLEMENS    PTSUNNY   74  71  89 N6        29.97R
6HR MIN TEMP:  68; 6HR MAX TEMP:  74;

PONTIAC        PTSUNNY   73  69  87 N7        30.00R
6HR MIN TEMP:  68; 6HR MAX TEMP:  73;

PORT HOPE        N/A     70  65  84 W3        29.99R
6HR MIN TEMP:  66; 6HR MAX TEMP:  72;

PORT HURON     SUNNY     72  68  88 CALM      29.99R
TRI CITIES     CLOUDY    70  65  84 NW8       30.02R
6HR MIN TEMP:  67; 6HR MAX TEMP:  73;

MIDLAND        FAIR      66  65  96 CALM      30.02R
6HR MIN TEMP:  60; 6HR MAX TEMP:  67;

TROY           CLOUDY    75  67  77 N5        30.01R
SAGINAW HB     CLOUDY    68  63  83 CALM      30.00R
$$
MIZ043>046-050>051-056>058-064>065-071>073-077>080-211300-
SOUTHWEST LOWER MICHIGAN

CITY           SKY/WX    TMP DP  RH WIND       PRES   REMARKS
BATTLE CREEK   CLOUDY    68  67  96 N3        30.03R
6HR MIN TEMP:  63; 6HR MAX TEMP:  70;

BENTON HARBOR  CLOUDY    69  67  93 VRB3      30.01R FOG
6HR MIN TEMP:  64; 6HR MAX TEMP:  69;

BIG RAPIDS     CLOUDY    63  62  96 CALM      30.03R FOG
6HR MIN TEMP:  59; 6HR MAX TEMP:  64;

COLDWATER      FOG       67  67 100 W3        30.03R VSB 1/4
6HR MIN TEMP:  64; 6HR MAX TEMP:  68;

FREMONT        FOG       64  64 100 CALM      30.01F VSB 3/4
HOLLAND        CLOUDY    66  64  93 CALM      30.01S FOG
6HR MIN TEMP:  60; 6HR MAX TEMP:  66;

GRAND RAPIDS   PTSUNNY   66  65  96 S5        30.02R
6HR MIN TEMP:  63; 6HR MAX TEMP:  71;

IONIA          FAIR      68  66  94 CALM      30.02R
6HR MIN TEMP:  65; 6HR MAX TEMP:  71;

KALAMAZOO      CLOUDY    67  64  90 CALM      30.03R
6HR MIN TEMP:  62; 6HR MAX TEMP:  69;

LUDINGTON      PTSUNNY   65  65 100 CALM      29.99S
6HR MIN TEMP:  60; 6HR MAX TEMP:  67;

MARSHALL       CLOUDY    67  67  99 CALM      30.02R FOG
6HR MIN TEMP:  65; 6HR MAX TEMP:  69;

MOUNT PLEASANT CLOUDY    70  66  86 CALM      30.02S
6HR MIN TEMP:  64; 6HR MAX TEMP:  70;

MUSKEGON       CLOUDY    71  68  90 CALM      30.00F
6HR MIN TEMP:  63; 6HR MAX TEMP:  71;

SOUTH HAVEN    CLOUDY    68  67  98 NE3       30.01F FOG
$$
MIZ016>042-211300-
NORTHERN LOWER MICHIGAN

CITY           SKY/WX    TMP DP  RH WIND       PRES   REMARKS
ALPENA         SUNNY     65  64  97 SW3       30.00R
6HR MIN TEMP:  59; 6HR MAX TEMP:  65;

BEAVER ISLAND  SUNNY     63  63 100 CALM      29.98R
6HR MIN TEMP:  55; 6HR MAX TEMP:  63;

BELLAIRE       SUNNY     62  60  94 CALM      30.00S
6HR MIN TEMP:  56; 6HR MAX TEMP:  62;

CADILLAC       CLOUDY    67  64  88 CALM      30.03R
CHARLEVOIX     SUNNY     65  65 100 SE3       30.01S
FRANKFORT      FOG       66  66 100 CALM      30.00S VSB 1/4
GAYLORD        SUNNY     62  58  86 CALM      30.02S
6HR MIN TEMP:  58; 6HR MAX TEMP:  67;

GRAYLING       SUNNY     64  60  87 CALM      30.03S
6HR MIN TEMP:  54; 6HR MAX TEMP:  64;

HARBOR SPRINGS SUNNY     64  64 100 CALM      29.99S
HOUGHTON LAKE  SUNNY     64  62  93 CALM      30.04R
6HR MIN TEMP:  56; 6HR MAX TEMP:  64;

MANISTEE       CLOUDY    64  64 100 E3        29.99S
OSCODA         SUNNY     67  64  89 NW5       30.00R
6HR MIN TEMP:  63; 6HR MAX TEMP:  67;

PELLSTON       SUNNY     60  59  96 CALM      29.99R
6HR MIN TEMP:  53; 6HR MAX TEMP:  61;

ROGERS CITY    SUNNY     65  62  90 CALM      29.99S
TRAVERSE CITY  MOSUNNY   69  65  86 S3        29.98S
6HR MIN TEMP:  62; 6HR MAX TEMP:  69;

$$
MIZ007>008-015-211300-
EASTERN UPPER MICHIGAN

CITY           SKY/WX    TMP DP  RH WIND       PRES   REMARKS
KINROSS        MOSUNNY   61  59  93 W5        29.97F
6HR MIN TEMP:  57; 6HR MAX TEMP:  61;

MACKINAC ISLAN SUNNY     65  65 100 W3        29.97S
6HR MIN TEMP:  60; 6HR MAX TEMP:  65;

NEWBERRY       SUNNY     62  61  97 CALM      29.96F
6HR MIN TEMP:  54; 6HR MAX TEMP:  62;

S. S. MARIE    SUNNY     65  60  84 CALM      29.96S
6HR MIN TEMP:  59; 6HR MAX TEMP:  65;

MUNISING         N/A     62  60  93 S8        29.95S
6HR MIN TEMP:  58; 6HR MAX TEMP:  62;

$$
MIZ004>006-011>014-085-211300-
CENTRAL UPPER MICHIGAN

CITY           SKY/WX    TMP DP  RH WIND       PRES   REMARKS
MANISTIQUE     SUNNY     61  58  89 CALM      29.97R
6HR MIN TEMP:  55; 6HR MAX TEMP:  61;

ESCANABA       SUNNY     63  61  93 CALM      29.96F
6HR MIN TEMP:  56; 6HR MAX TEMP:  63;

MENOMINEE      SUNNY     66  63  90 CALM      29.98F
6HR MIN TEMP:  61; 6HR MAX TEMP:  68;

$$
MIZ001>003-009>011-084-211300-
WESTERN UPPER MICHIGAN

CITY           SKY/WX    TMP DP  RH WIND       PRES   REMARKS
IRON MOUNTAIN  SUNNY     62  57  83 CALM      29.97S
6HR MIN TEMP:  56; 6HR MAX TEMP:  63;

HOUGHTON       MOSUNNY   62  57  83 NW3       29.95S
6HR MIN TEMP:  56; 6HR MAX TEMP:  62;

COPPER HARBOR    N/A     61  55  81 CALM      29.93F
6HR MIN TEMP:  58; 6HR MAX TEMP:  65;

IRONWOOD       MOSUNNY   61  60  97 E5        29.95F
6HR MIN TEMP:  56; 6HR MAX TEMP:  61;

$$

ABBREVIATIONS USED IN REMARKS
   TC - TEMPERATURE IN CELSIUS
  WCI - WIND CHILL INDEX
   HX - HEAT INDEX
  VSB - VISIBILITY





USA.gov is the U.S. government's official web portal to all federal, state and local government web resources and services.